#timestamp,LO_Frequency,Hit 
1499857215.7,286047067.3,N
1499857235.5,286047070.0,N
1499857255.4,286047069.3,N
1499857275.2,286047069.5,N
1499857295.0,286047067.4,N
1499857295.9,286047067.4,N
1499857315.8,286047067.9,N
1499857335.6,286047067.7,N
1499857355.5,286047066.9,N
1499857375.3,286047067.2,N
1499857395.1,286047067.5,N
1499857415.9,286047068.3,N
1499857435.7,286047067.3,N
1499857455.5,286047069.0,N
1499857475.4,286047071.4,N
1499857495.2,286047067.2,N
1499857515.1,286047067.4,N
1499857516.0,286047067.4,N
1499857535.8,286047067.8,N
1499857555.6,286047064.5,N
1499857575.5,286047064.7,N
1499857595.3,286047063.9,N
1499857615.1,286047068.4,N
1499857635.9,286047063.9,N
1499857655.7,286047065.3,N
1499857675.6,286047067.2,N
1499857695.4,286047068.2,N
1499857715.2,286047065.9,N
1499857735.1,286047067.3,N
1499857736.0,286047067.3,N
1499857755.8,286047069.8,N
1499857775.6,286047069.7,N
1499857795.5,286047067.3,N
1499857815.3,286047067.7,N
1499857835.2,286047066.4,N
1499857855.9,286047064.1,N
1499857875.7,286047062.4,N
1499857895.6,286047064.7,N
1499857915.4,286047062.1,N
1499857935.2,286047065.2,N
1499857955.1,286047065.0,N
1499857956.0,286047065.0,N
1499857975.8,286047063.5,N
1499857995.7,286047063.4,N
1499858015.5,286047062.4,N
1499858035.3,286047063.3,N
1499858055.2,286047061.8,N
1499858075.0,286047060.5,N
1499858075.9,286047060.5,N
1499858095.7,286047062.8,N
1499858115.6,286047065.1,N
1499858135.4,286047064.4,N
1499858155.3,286047066.7,N
1499858175.1,286047066.0,N
1499858176.0,286047066.0,N
1499858195.8,286047062.8,N
1499858215.7,286047065.0,N
1499858235.5,286047062.2,N
1499858255.3,286047063.2,N
1499858275.2,286047061.7,N
1499858295.0,286047060.0,N
1499858295.9,286047060.0,N
1499858315.8,286047057.3,N
1499858335.6,286047056.1,N
1499858355.4,286047054.2,N
1499858375.3,286047055.7,N
1499858395.1,286047057.5,N
1499858415.9,286047062.0,N
1499858435.7,286047060.6,N
1499858455.5,286047061.2,N
1499858475.4,286047059.7,N
1499858495.2,286047059.3,N
1499858515.0,286047059.0,N
1499858515.9,286047059.0,N
1499858535.8,286047061.9,N
1499858555.6,286047059.2,N
1499858575.5,286047059.0,N
1499858595.3,286047060.9,N
1499858615.1,286047061.3,N
1499858635.9,286047062.5,N
1499858655.7,286047060.8,N
1499858675.5,286047059.7,N
1499858695.4,286047059.2,N
1499858715.2,286047061.9,N
1499858735.0,286047061.0,N
1499858736.0,286047061.0,N
1499858755.8,286047061.9,N
1499858775.6,286047059.6,N
1499858795.5,286047058.1,N
1499858815.3,286047055.9,N
1499858835.1,286047058.8,N
1499858855.9,286047058.0,N
1499858875.7,286047057.3,N
1499858895.5,286047059.4,N
1499858915.4,286047059.1,N
1499858935.2,286047061.5,N
1499858955.1,286047059.3,N
1499858986.0,286047059.2,Y
1499858995.0,286047035.4,N
1499858995.9,286047035.4,N
1499859015.8,286047000.3,N
1499859035.6,286047000.7,N
1499859055.4,286047000.6,N
1499859075.3,286047002.5,N
1499859095.1,286047000.7,N
1499859096.0,286047000.7,N
1499859115.8,286047000.0,N
1499859135.7,286047000.0,N
1499859155.5,286047000.1,N
1499859175.3,286046999.8,N
1499859195.2,286047000.9,N
1499859215.0,286046999.0,N
1499859215.9,286046999.0,N
1499859235.8,286046997.9,N
1499859255.6,286046995.5,N
1499859275.4,286046995.6,N
1499859295.3,286046997.8,N
1499859315.1,286046997.7,N
1499859335.9,286046997.4,N
1499859355.7,286046997.3,N
1499859375.5,286046997.6,N
1499859395.4,286046997.9,N
1499859415.2,286046997.5,N
1499859435.0,286046995.9,N
1499859435.9,286046995.9,N
1499859455.8,286046996.4,N
1499859475.6,286046996.1,N
1499859495.5,286046993.3,N
1499859515.3,286046996.1,N
1499859535.1,286046996.0,N
1499859555.9,286046992.5,N
1499859575.7,286046991.2,N
1499859595.5,286046989.1,N
1499859615.4,286046987.5,N
1499859635.2,286046985.6,N
1499859655.1,286046986.8,N
1499859656.0,286046986.8,N
1499859675.8,286046984.7,N
1499859695.6,286046986.7,N
1499859715.5,286046985.1,N
1499859735.3,286046983.3,N
1499859755.2,286046982.9,N
1499859775.9,286046981.3,N
1499859795.7,286046981.8,N
1499859815.6,286046983.2,N
1499859835.4,286046983.2,N
1499859855.2,286046982.9,N
1499859875.1,286046982.2,N
1499859876.0,286046982.2,N
1499859895.8,286046982.2,N
1499859915.7,286046980.5,N
1499859935.5,286046981.1,N
1499859955.3,286046981.0,N
1499859975.2,286046981.0,N
1499859995.9,286046983.2,N
1499860015.7,286046980.5,N
1499860035.6,286046981.1,N
1499860055.4,286046981.7,N
1499860075.2,286046981.8,N
1499860095.1,286046979.0,N
1499860096.0,286046979.0,N
1499860115.8,286046982.0,N
1499860135.7,286046979.1,N
1499860155.5,286046977.3,N
1499860175.3,286046986.3,N
1499860195.2,286046981.9,N
1499860215.0,286046980.9,N
1499860215.9,286046980.9,N
1499860235.8,286046980.9,N
1499860255.6,286046980.8,N
1499860275.4,286046983.3,N
1499860295.3,286046982.4,N
1499860315.1,286046982.9,N
1499860335.8,286046983.2,N
1499860355.7,286046982.9,N
1499860375.5,286046982.1,N
1499860395.3,286046982.3,N
1499860415.2,286046983.4,N
1499860435.0,286046982.8,N
1499860435.9,286046982.8,N
1499860455.8,286046984.2,N
1499860475.6,286046986.2,N
1499860495.4,286046985.3,N
1499860515.3,286046988.4,N
1499860535.1,286046985.3,N
1499860555.9,286046988.7,N
1499860575.7,286046989.0,N
1499860595.5,286046989.7,N
1499860615.4,286046989.1,N
1499860635.2,286046990.6,N
1499860655.0,286046988.9,N
1499860655.9,286046988.9,N
1499860675.8,286046985.4,N
1499860695.6,286046985.2,N
1499860715.5,286046984.9,N
1499860735.3,286046982.9,N
1499860755.1,286046982.7,N
1499860775.9,286046982.1,N
1499860795.7,286046985.0,N
